Theta_e
315 316 316 312 309 314 307 308 304 308 310 315 323 325 328 330 332 332 337 338 341 344 341 346 352 354 355 358 363 363 363 365
313 316 315 315 317 307 309 300 299 304 305 309 315 320 328 331 333 336 339 340 343 345 348 351 354 357 358 361 364 364 364 364
313 312 311 311 311 312 312 308 303 302 305 315 316 320 325 331 335 338 341 342 345 345 350 355 356 357 359 360 362 364 362 359
309 314 315 316 314 313 307 308 309 306 309 317 320 322 325 329 336 341 343 345 347 345 351 353 354 356 356 358 358 357 356 356
307 311 313 312 314 315 314 313 308 304 308 320 321 322 326 329 335 343 345 347 349 350 350 351 353 353 352 353 352 351 349 343
305 308 312 310 312 314 313 308 309 309 310 316 318 318 324 328 333 341 344 347 348 348 349 349 350 350 349 348 347 344 341 339
312 312 313 312 311 312 311 312 309 310 310 314 317 318 320 327 329 332 338 344 346 345 346 347 347 346 345 345 343 341 341 341
309 311 311 309 311 312 312 312 313 311 310 317 320 321 322 325 329 329 333 337 339 341 342 342 341 340 339 340 340 342 341 341
306 310 309 306 310 312 312 314 312 308 313 317 315 318 322 323 328 331 332 335 338 338 338 337 336 339 338 339 340 340 340 341
308 310 300 311 317 315 313 313 313 313 314 319 322 325 327 329 328 331 333 334 334 335 337 338 337 338 337 337 337 337 337 337
307 305 309 308 312 312 312 312 316 315 319 320 324 326 326 330 333 333 333 334 334 335 335 336 335 335 334 334 333 332 331 332
309 304 302 313 315 319 317 308 319 319 320 319 324 314 322 328 330 330 332 333 332 332 332 332 333 334 333 332 332 331 333 334
309 307 310 315 316 319 306 311 319 321 322 323 321 326 329 330 330 331 331 329 330 330 329 330 332 332 331 331 331 334 335 335
310 307 303 317 316 311 320 322 324 324 326 326 327 327 329 329 329 328 327 327 328 328 329 331 332 331 330 330 333 333 333 332
313 312 321 321 322 324 323 325 326 327 328 327 326 325 328 326 326 326 327 327 328 328 329 330 331 332 329 331 332 331 332 331
315 317 319 320 322 325 327 327 327 328 327 326 324 325 324 325 325 326 327 327 328 328 327 328 329 329 327 329 328 324 323 329
316 318 320 321 324 325 325 327 326 326 325 324 324 324 324 324 325 325 326 326 326 322 321 320 321 323 325 325 322 320 321 323
311 321 320 321 324 325 324 323 323 323 323 324 324 323 323 324 325 323 321 321 322 321 322 322 321 321 322 321 318 318 319 323
319 323 324 325 325 325 323 323 324 323 323 322 324 325 324 322 319 316 319 321 320 318 320 320 319 319 317 317 316 319 317 318
Wind_Speed
7 6 8 10 10 6 3 2 7 6 4 8 1 2 3 10 13 13 16 17 17 16 16 13 12 13 13 11 11 11 10 9
7 8 4 8 10 8 6 3 5 8 4 3 1 3 1 7 11 13 14 15 15 14 12 11 11 11 11 12 11 10 9 8
10 13 14 8 11 8 4 6 4 3 7 4 2 6 3 4 8 11 14 15 13 12 11 9 10 10 10 10 10 9 8 7
18 6 5 10 15 14 7 11 1 6 2 6 3 3 5 5 6 10 12 12 11 11 10 10 10 9 9 9 9 8 6 5
8 9 6 12 9 11 5 5 6 8 5 6 3 4 5 8 7 10 9 10 10 8 9 8 8 8 8 8 7 6 5 4
13 14 16 13 12 14 14 10 8 10 9 5 2 3 2 5 8 7 9 10 9 8 6 6 6 6 6 5 2 3 3 4
17 6 9 14 14 15 16 15 9 3 4 3 2 4 6 6 5 8 11 11 8 8 7 7 6 5 3 2 2 3 5 7
14 11 13 14 14 16 16 9 11 5 6 0 2 2 3 3 2 5 7 6 6 6 6 5 4 3 2 2 4 5 7 9
16 10 13 16 16 18 14 12 9 9 2 3 4 5 6 3 2 3 6 8 9 7 6 5 3 5 4 5 6 8 9 11
7 10 15 4 6 13 11 8 7 3 1 3 3 5 6 4 4 7 9 9 8 7 6 6 5 5 5 6 8 9 11 12
7 15 6 6 7 9 12 11 10 7 6 6 7 8 9 8 10 10 11 10 8 7 6 5 7 7 7 8 9 11 14 15
8 14 17 4 13 5 7 8 11 9 8 7 7 7 11 9 11 11 10 9 7 6 6 6 6 7 9 12 13 13 14 14
10 10 8 8 8 10 10 3 8 9 7 8 6 6 12 11 10 10 9 9 7 7 8 9 10 10 11 11 11 12 13 14
7 12 10 10 9 10 5 3 8 10 9 10 11 12 11 10 9 8 7 7 8 7 8 9 9 9 10 10 11 12 13 14
5 2 8 5 5 6 2 6 7 11 13 13 12 11 9 8 7 7 8 8 7 7 7 7 8 9 11 11 12 13 14 14
10 6 8 7 6 6 6 9 10 12 11 11 11 9 9 7 6 6 6 7 7 8 8 9 11 12 10 10 12 13 13 15
8 9 10 7 10 12 14 13 14 12 12 11 10 9 6 6 6 6 6 8 8 8 7 8 9 10 10 11 12 13 13 12
4 13 1 14 11 13 14 13 12 13 12 11 9 8 5 7 7 7 7 7 7 7 9 9 11 11 11 12 13 12 13 12
6 12 11 15 12 10 12 12 11 11 10 10 9 8 8 8 6 5 6 7 8 9 10 11 11 11 11 12 13 14 12 13
Wind_Direction
200 177 213 160 223 19 265 116 261 139 177 238 206 336 254 212 211 184 187 187 188 192 191 192 190 188 187 180 190 192 199 201
139 168 149 276 155 193 220 241 266 132 259 3 291 358 97 209 197 189 188 187 183 188 189 193 190 177 180 180 189 191 200 201
171 206 199 173 203 235 22 320 314 230 118 81 0 357 321 222 209 194 190 189 186 183 171 183 178 173 182 181 181 180 186 183
206 103 293 226 209 200 219 171 224 320 38 126 152 291 287 256 207 200 198 188 186 189 157 185 183 176 174 173 179 175 164 174
179 166 182 213 205 223 231 291 216 278 95 134 165 250 276 268 216 199 205 200 184 173 188 183 180 171 164 181 172 162 171 199
205 208 187 195 197 209 222 225 227 219 276 146 144 317 299 254 257 228 212 219 197 188 183 176 159 158 169 179 132 188 235 258
251 293 209 203 206 208 222 240 248 354 286 2 67 351 350 332 271 234 225 220 193 191 173 164 158 147 182 217 239 310 290 290
224 236 234 236 228 210 221 221 236 248 262 22 34 312 324 330 264 231 218 201 173 160 141 123 125 210 239 309 316 313 303 297
219 211 217 227 209 206 189 201 220 226 204 82 302 338 334 305 220 154 156 149 146 147 140 135 120 38 350 345 320 308 299 291
184 165 217 105 193 204 201 195 199 145 156 85 62 70 56 44 115 119 121 127 125 112 88 68 57 39 352 336 323 311 302 295
170 205 111 142 171 181 188 196 200 200 155 152 133 137 86 73 84 93 89 83 84 79 74 56 36 7 341 317 317 316 314 312
195 221 224 162 142 140 174 208 185 202 177 162 163 222 115 118 104 97 87 74 69 55 47 36 17 354 344 347 340 334 332 320
192 228 115 119 139 161 209 91 142 172 171 160 175 44 119 113 99 86 78 65 49 39 30 19 10 0 350 339 334 332 321 316
218 222 210 151 150 210 68 100 141 158 149 130 114 117 117 106 94 83 72 51 34 24 16 10 4 349 338 331 337 325 321 314
288 146 113 133 52 90 78 136 151 141 140 133 133 124 114 104 87 66 46 37 19 3 349 357 358 346 336 343 335 331 322 321
172 118 111 123 127 120 145 123 129 125 129 130 114 105 91 78 64 51 38 19 3 354 352 351 2 352 346 349 341 327 323 318
91 120 127 113 112 119 115 112 112 104 99 100 102 92 94 79 54 41 31 20 11 5 352 344 339 330 335 347 339 321 317 305
179 152 220 140 139 133 127 122 117 113 99 82 84 83 79 75 51 33 26 11 355 344 332 338 335 330 347 344 331 318 320 321
111 136 122 132 129 126 120 110 100 98 101 96 75 79 68 81 66 60 16 358 354 347 339 332 340 331 341 336 329 320 316 314